Location: Kapla
(46.2483°N, 15.0094°E)
Time: 21:23:14
(UTC+00:00)

CZ-2D R/B - Pass Details

Date: 03 March 2021
Orbit: 521 x 537 km, 97.4° (Epoch: 22 April)

Event Time Altitude Azimuth Distance (km) Brightness Sun altitude
Rises 17:13:30 0° 170° (S) 2,637 6.7 -5.0°
Reaches altitude 10° 17:15:35 10° 172° (S) 1,755 5.9 -5.4°
Maximum altitude 17:19:22 74° 257° (WSW) 549 3.5 -6.0°
Drops below altitude 10° 17:23:12 10° 344° (NNW) 1,778 6.1 -6.7°
Sets 17:25:20 0° 346° (NNW) 2,675 7.0 -7.1°
